Regional Weather Roundup
Issued by NWS New Orleans/Baton Rouge, LA

Home | Current Version | Previous Version | Graphics & Text | Print | Product List | Glossary On
Versions: 1 2 3 4 5 6 7 8 9 10 11 12 13 14 15 16 17 18 19 20 21 22 23 24 25 26 27 28 29 30 31 32 33 34 35 36 37 38 39 40 41 42 43 44 45 46 47 48 49 50
738
ASUS44 KLIX 180405
RWRLIX
NEW ORLEANS REGIONAL WEATHER ROUNDUP
NATIONAL WEATHER SERVICE NEW ORLEANS LA
1100 PM CDT THU APR 17 2014

NOTE: "FAIR" INDICATES FEW OR NO CLOUDS BELOW 12,000 FEET WITH NO
      SIGNIFICANT WEATHER AND/OR OBSTRUCTIONS TO VISIBILITY.
      SKY/WX - SKY CONDITION AND SIGNIFICANT WEATHER.
      TMP - AIR TEMPERATURE.     DP    - DEWPOINT TEMPERATURE.
      RH  - RELATIVE HUMIDITY.   PRES  - PRESSURE.
      HI  - HEAT INDEX.          WCI   - WIND CHILL INDEX.

*  THESE STATIONS ARE NOT NWS OR FAA STATIONS AND ARE NOT UNDER
   NWS QUALITY CONTROL.

LAZ038-040-048-061>063-065>067-069-180500-
SOUTHEAST LOUISIANA

CITY           SKY/WX    TMP DP  RH WIND       PRES   REMARKS
N.O. AUDUBON   NOT AVBL
N.O. INTL ARPT CLOUDY    64  59  83 E13G23    30.11S
N.O. LAKEFRONT CLOUDY    64  59  83 E17       30.12F
N.O. DOWNTOWN* MOCLDY    63  55  77 E9        30.13S
SLIDELL        CLOUDY    62  59  90 NE5       30.13S
BATON ROUGE    CLOUDY    63  57  81 NE6       30.13S
BOOTHVILLE     CLOUDY    63  61  93 N8        30.09R
BELLE CHASSE   CLOUDY    63  59  87 E13G21    30.11F FOG
BOGALUSA*        N/A     63  56  77 E5        30.16F
GALLIANO*      CLOUDY    64  61  92 NE9       30.10S
NEW ROADS*     CLOUDY    60  58  92 N5        30.13F
GONZALES*      CLOUDY    64  59  86 NE3       30.12S
HAMMOND*       CLOUDY    61  57  88 CALM      30.15R
HOUMA*           N/A     63  59  87 NE9       30.10F
PORT FOURCHON* CLOUDY    64  63  94 NE13G22   30.09S

$$

MSZ070-080>082-180500-
SOUTHERN MISSISSIPPI

CITY           SKY/WX    TMP DP  RH WIND       PRES   REMARKS
MCCOMB         CLOUDY    60  54  80 NE3       30.16S
GULFPORT       CLOUDY    65  59  81 NE8       30.14S
BILOXI         CLOUDY    62  60  93 NE13      30.14S
PASCAGOULA     LGT RAIN  61  60  97 E10       30.14F FOG

$$

COASTAL OBSERVATIONS
LAKE AND NEARSHORE STATIONS

STATION/POSITION TIME  TEMP    WIND        PRES    WAVE
                       AIR SEA DIR/SP/G            HT/PER
                 (UTC) (F)     (DEG/KT/KT) (MB)    (FT/S)
PASCAGOULA       0400   62      80/ 20/ 24 1019.7
WAVELAND YACHT   0400   63 66  100/  7/  8 1020.0
GRAND ISLE       0400   64 67   70/ 16/ 19 1019.0
SOUTHWEST PASS   0400   64 58   90/ 37/ 41 1016.1
NEW CANAL        0400   63 63   80/  8/ 13 1020.0
SHELL BEACH      0400   63 61   60/ 13/ 14 1020.1

OFFSHORE STATIONS

STATION/POSITION TIME  TEMP    WIND        PRES    WAVE
                       AIR SEA DIR/SP/G            HT/PER
                 (UTC) (F)     (DEG/KT/KT) (MB)    (FT/S)
64 S DAUPHIN ISL 0349   64 71   30/ 23/ 27 1020.4

$$




USA.gov is the U.S. government's official web portal to all federal, state and local government web resources and services.